Date String (YYYY-MM-DD hh:mm:ss) UTC,Instrument flags,absolute air pressure of the measurement (hPa),sample flow rate (lpm),inlet stack bypass flow (lpm),air temperature of the measurement (°C),ambient temperature measured by the external sensor (°C),aerosol sample conditioner tube jacket temperature (°C),OPC LED temperature (°C),internal box temperature (°C),relative humidity of the measurement (%),span deviation,mass concentration of particles derived from Lorenz-Mie calculation of OPC scattering (μg/m³),mass concentration of particles derived from Lorenz-Mie calculation of OPC scattering (μg/m³),mass concentration of particles derived from Lorenz-Mie calculation of OPC scattering (μg/m³)
DateTimeUTC,F1_M11,P_M11,Q1_M11,Q2_M11,T1_M11,T2_M11,T3_M11,T4_M11,T5_M11,U1_M11,ZSPAN_M11,X0_M11,X2_M11,X1_M11
2024-04-18 00:00:00,SystemResetWarning,0823.3,5.00,000.00,025.1,024.5,000.0,033.2,027.1,020.7,0000.0,0014.88,0003.92,0002.23
2024-04-18 00:01:00,SystemResetWarning,0823.4,4.99,000.00,025.2,024.6,000.0,033.3,027.2,020.6,0000.0,0014.95,0003.97,0002.23
2024-04-18 00:02:00,SystemResetWarning,0823.4,4.99,000.00,025.3,024.8,000.0,033.3,027.3,020.6,0000.0,0014.04,0003.91,0002.20
2024-04-18 00:03:00,SystemResetWarning,0823.4,5.00,000.00,025.4,024.9,000.0,033.4,027.4,020.8,0000.0,0014.41,0003.87,0002.19
2024-04-18 00:04:00,SystemResetWarning,0823.2,5.00,000.00,025.3,024.0,000.0,033.4,026.7,020.7,0000.0,0014.30,0003.89,0002.19
2024-04-18 00:05:00,SystemResetWarning,0823.0,5.01,000.00,024.9,021.6,000.0,033.5,025.4,021.0,0000.0,0014.12,0003.89,0002.17
2024-04-18 00:06:00,SystemResetWarning,0823.0,5.01,000.00,024.5,021.0,000.0,033.4,024.9,021.3,0000.0,0014.40,0003.83,0002.16
2024-04-18 00:07:00,SystemResetWarning,0823.0,5.00,000.00,024.3,021.5,000.0,033.3,025.1,021.7,0000.0,0014.09,0003.71,0002.16
2024-04-18 00:08:00,SystemResetWarning,0823.1,5.00,000.00,024.3,021.9,000.0,033.1,025.5,021.8,0000.0,0014.06,0003.72,0002.15
2024-04-18 00:09:00,SystemResetWarning,0823.1,5.01,000.00,024.4,022.4,000.0,033.1,025.8,021.9,0000.0,0015.10,0003.79,0002.16
2024-04-18 00:10:00,SystemResetWarning,0823.1,5.00,000.00,024.4,022.8,000.0,033.0,026.1,022.1,0000.0,0016.93,0003.84,0002.16
2024-04-18 00:11:00,SystemResetWarning,0823.2,4.99,000.00,024.5,023.1,000.0,033.0,026.3,022.4,0000.0,0017.34,0003.82,0002.17
2024-04-18 00:12:00,SystemResetWarning,0823.1,5.00,000.00,024.6,023.4,000.0,033.0,026.4,022.8,0000.0,0016.75,0003.77,0002.16
2024-04-18 00:13:00,SystemResetWarning,0823.4,5.01,000.00,024.6,023.7,000.0,033.0,026.5,023.2,0000.0,0017.10,0003.76,0002.18
2024-04-18 00:14:00,SystemResetWarning,0823.5,5.00,000.00,024.7,023.9,000.0,033.0,026.6,023.2,0000.0,0017.19,0003.78,0002.18
2024-04-18 00:15:00,SystemResetWarning,0823.6,5.01,000.00,024.8,024.1,000.0,033.0,026.7,023.0,0000.0,0018.54,0003.74,0002.18
2024-04-18 00:16:00,SystemResetWarning,0823.7,5.01,000.00,024.9,024.3,000.0,033.0,026.8,022.9,0000.0,0019.60,0003.73,0002.20
2024-04-18 00:17:00,SystemResetWarning,0823.8,4.99,000.00,025.0,024.4,000.0,033.1,026.9,022.8,0000.0,0018.29,0003.73,0002.20
2024-04-18 00:18:00,SystemResetWarning,0823.8,4.99,000.00,025.0,024.5,000.0,033.1,027.0,022.7,0000.0,0018.32,0003.78,0002.19
2024-04-18 00:19:00,SystemResetWarning,0823.9,5.00,000.00,025.1,024.7,000.0,033.2,027.1,022.7,0000.0,0018.56,0003.78,0002.21
2024-04-18 00:20:00,SystemResetWarning,0823.9,5.00,000.00,025.2,024.8,000.0,033.2,027.2,022.6,0000.0,0017.78,0003.75,0002.21
2024-04-18 00:21:00,SystemResetWarning,0823.9,5.00,000.00,025.3,024.9,000.0,033.3,027.3,022.4,0000.0,0015.89,0003.70,0002.21
2024-04-18 00:22:00,SystemResetWarning,0823.9,4.99,000.00,025.3,024.9,000.0,033.3,027.3,022.2,0000.0,0015.41,0003.74,0002.21
2024-04-18 00:23:00,SystemResetWarning,0824.0,4.99,000.00,025.4,025.0,000.0,033.4,027.4,022.1,0000.0,0016.21,0003.79,0002.23
2024-04-18 00:24:00,SystemResetWarning,0824.0,5.00,000.00,025.5,025.1,000.0,033.4,027.4,022.0,0000.0,0017.20,0003.79,0002.24
2024-04-18 00:25:00,SystemResetWarning,0824.1,5.01,000.00,025.5,025.2,000.0,033.5,027.5,021.9,0000.0,0017.93,0003.76,0002.27
2024-04-18 00:26:00,SystemResetWarning,0824.1,5.00,000.00,025.6,025.2,000.0,033.5,027.5,021.7,0000.0,0017.63,0003.77,0002.31
2024-04-18 00:27:00,SystemResetWarning,0824.2,4.99,000.00,025.6,025.3,000.0,033.6,027.6,021.6,0000.0,0016.86,0003.80,0002.36
2024-04-18 00:28:00,SystemResetWarning,0824.3,4.99,000.00,025.7,025.3,000.0,033.6,027.7,021.1,0000.0,0016.87,0003.82,0002.43
2024-04-18 00:29:00,SystemResetWarning,0824.4,5.00,000.00,025.8,025.4,000.0,033.7,027.7,021.0,0000.0,0016.28,0003.83,0002.50
2024-04-18 00:30:00,SystemResetWarning,0824.4,5.00,000.00,025.8,025.4,000.0,033.7,027.7,020.9,0000.0,0015.75,0003.89,0002.57
2024-04-18 00:31:00,SystemResetWarning,0824.5,5.00,000.00,025.9,025.5,000.0,033.8,027.8,020.8,0000.0,0016.40,0003.93,0002.63
2024-04-18 00:32:00,SystemResetWarning,0824.5,5.00,000.00,025.9,025.5,000.0,033.8,027.9,020.5,0000.0,0017.79,0004.00,0002.70
2024-04-18 00:33:00,SystemResetWarning,0824.5,5.00,000.00,026.0,025.6,000.0,033.9,027.9,020.4,0000.0,0018.21,0004.02,0002.74
2024-04-18 00:34:00,SystemResetWarning,0824.5,4.99,000.00,026.0,025.2,000.0,034.0,027.6,020.3,0000.0,0018.80,0003.98,0002.74
2024-04-18 00:35:00,SystemResetWarning,0824.4,5.00,000.00,025.6,022.8,000.0,034.0,026.4,020.6,0000.0,0017.35,0003.97,0002.74
2024-04-18 00:36:00,SystemResetWarning,0824.4,5.01,000.00,025.2,022.1,000.0,034.0,025.9,021.0,0000.0,0016.10,0004.03,0002.72
2024-04-18 00:37:00,SystemResetWarning,0824.5,5.01,000.00,025.1,022.4,000.0,033.9,026.0,021.1,0000.0,0015.08,0004.04,0002.69
2024-04-18 00:38:00,SystemResetWarning,0824.7,4.99,000.00,025.0,022.7,000.0,033.7,026.2,021.2,0000.0,0014.64,0003.97,0002.63
2024-04-18 00:39:00,SystemResetWarning,0824.7,5.00,000.00,025.1,023.1,000.0,033.7,026.5,021.2,0000.0,0014.66,0003.89,0002.56
2024-04-18 00:40:00,SystemResetWarning,0824.7,5.00,000.00,025.1,023.5,000.0,033.6,026.7,020.9,0000.0,0015.33,0003.86,0002.50
2024-04-18 00:41:00,SystemResetWarning,0824.7,5.00,000.00,025.1,023.8,000.0,033.6,026.9,020.9,0000.0,0016.11,0003.82,0002.45
2024-04-18 00:42:00,SystemResetWarning,0824.8,5.01,000.00,025.2,024.0,000.0,033.6,027.0,020.8,0000.0,0015.59,0003.79,0002.39
2024-04-18 00:43:00,SystemResetWarning,0824.9,5.00,000.00,025.2,024.2,000.0,033.6,027.1,020.8,0000.0,0015.93,0003.73,0002.33
2024-04-18 00:44:00,SystemResetWarning,0824.9,5.00,000.00,025.3,024.4,000.0,033.6,027.2,020.7,0000.0,0015.80,0003.69,0002.29
2024-04-18 00:45:00,SystemResetWarning,0824.9,4.99,000.00,025.3,024.6,000.0,033.6,027.2,020.6,0000.0,0015.72,0003.67,0002.26
2024-04-18 00:46:00,SystemResetWarning,0825.0,4.99,000.00,025.4,024.7,000.0,033.7,027.3,020.5,0000.0,0015.46,0003.65,0002.23
2024-04-18 00:47:00,SystemResetWarning,0825.0,5.00,000.00,025.5,024.8,000.0,033.7,027.4,020.5,0000.0,0015.43,0003.60,0002.22
2024-04-18 00:48:00,SystemResetWarning,0825.1,5.00,000.00,025.5,024.9,000.0,033.7,027.4,020.5,0000.0,0015.56,0003.59,0002.21
2024-04-18 00:49:00,SystemResetWarning,0825.1,5.01,000.00,025.6,025.0,000.0,033.7,027.5,020.6,0000.0,0014.96,0003.64,0002.20
2024-04-18 00:50:00,SystemResetWarning,0825.1,5.01,000.00,025.6,025.1,000.0,033.8,027.6,020.4,0000.0,0016.48,0003.71,0002.20
2024-04-18 00:51:00,SystemResetWarning,0825.1,5.00,000.00,025.7,025.2,000.0,033.8,027.6,020.2,0000.0,0016.48,0003.74,0002.20
2024-04-18 00:52:00,SystemResetWarning,0825.2,4.99,000.00,025.7,025.3,000.0,033.8,027.7,020.2,0000.0,0016.03,0003.75,0002.21
2024-04-18 00:53:00,SystemResetWarning,0825.2,5.00,000.00,025.8,025.3,000.0,033.9,027.7,020.3,0000.0,0016.50,0003.76,0002.22
2024-04-18 00:54:00,SystemResetWarning,0825.3,5.01,000.00,025.8,025.4,000.0,033.9,027.8,020.2,0000.0,0014.90,0003.75,0002.22
2024-04-18 00:55:00,SystemResetWarning,0825.4,5.01,000.00,025.9,025.4,000.0,034.0,027.8,020.3,0000.0,0015.30,0003.78,0002.24
2024-04-18 00:56:00,SystemResetWarning,0825.4,4.98,000.00,025.9,025.4,000.0,034.0,027.8,020.2,0000.0,0015.63,0003.81,0002.25
2024-04-18 00:57:00,SystemResetWarning,0825.4,4.99,000.00,026.0,025.5,000.0,034.0,027.9,020.2,0000.0,0015.63,0003.85,0002.27
2024-04-18 00:58:00,SystemResetWarning,0825.4,5.01,000.00,026.0,025.5,000.0,034.1,027.9,020.2,0000.0,0016.46,0003.85,0002.29
2024-04-18 00:59:00,SystemResetWarning,0825.4,5.01,000.00,026.0,025.6,000.0,034.1,028.0,020.1,0000.0,0017.26,0003.87,0002.32
